DB0RV-13 Weather Reports


Display with metric or nautical units.
time (UTC)temp
F
wind
direction
speed
MPH
gust
MPH
rain 1hr
in
rain 24hr
in
rain mn
in
humidity
%
barometer
mb
20260902092501 66 261 1.0 0.0 0.00 0.00 0.00 71 1021.0
20260902092002 66 323 2.0 0.0 0.00 0.00 0.00 71 1021.2
20260902091501 65 0 0.0 0.0 0.00 0.00 0.00 70 1021.0
20260902091001 66 0 0.0 0.0 0.00 0.00 0.00 69 1020.8
20260902090501 66 0 0.0 0.0 0.00 0.00 0.00 72 1020.9
20260902090001 65 211 2.0 0.0 0.00 0.00 0.00 73 1020.9
20260902085502 65 148 4.0 0.0 0.00 0.00 0.00 74 1020.8
20260902085002 64 183 4.0 0.0 0.00 0.00 0.00 76 1020.7
20260902084502 63 159 5.0 0.0 0.00 0.00 0.00 78 1020.7
20260902084001 63 188 5.0 0.0 0.00 0.00 0.00 77 1020.7
20260902083502 62 182 4.0 0.0 0.00 0.00 0.00 78 1020.7
20260902083001 62 178 4.0 0.0 0.00 0.00 0.00 78 1020.7
20260902082502 62 194 2.0 0.0 0.00 0.00 0.00 77 1020.7
20260902082001 62 0 0.0 0.0 0.00 0.00 0.00 76 1020.7
20260902081502 62 181 2.0 0.0 0.00 0.00 0.00 76 1020.9
20260902081002 62 195 2.0 0.0 0.00 0.00 0.00 76 1020.8
20260902080502 62 201 3.0 0.0 0.00 0.00 0.00 76 1020.8
20260902080002 62 200 3.0 0.0 0.00 0.00 0.00 75 1020.7
20260902075501 62 209 2.0 0.0 0.00 0.00 0.00 74 1020.7
20260902075002 61 231 2.0 0.0 0.00 0.00 0.00 77 1020.7
20260902074501 60 199 1.0 0.0 0.00 0.00 0.00 75 1020.6
20260902074002 60 184 1.0 0.0 0.00 0.00 0.00 73 1020.6
20260902073501 60 154 4.0 0.0 0.00 0.00 0.00 74 1020.7
20260902073002 59 146 2.0 0.0 0.00 0.00 0.00 75 1020.6
20260902072502 60 121 1.0 0.0 0.00 0.00 0.00 73 1020.5
20260902072002 60 150 2.0 0.0 0.00 0.00 0.00 73 1020.7
20260902071502 58 200 1.0 0.0 0.00 0.00 0.00 75 1020.7
20260902071001 58 131 3.0 0.0 0.00 0.00 0.00 76 1020.7
20260902070502 57 118 1.0 0.0 0.00 0.00 0.00 76 1020.6
20260902070001 57 133 2.0 0.0 0.00 0.00 0.00 77 1020.7
20260902065502 57 119 3.0 0.0 0.00 0.00 0.00 79 1020.6
20260902065001 56 118 1.0 0.0 0.00 0.00 0.00 79 1020.7
20260902064502 56 134 1.0 0.0 0.00 0.00 0.00 79 1020.6
20260902064002 57 141 2.0 0.0 0.00 0.00 0.00 77 1020.7
20260902063501 56 85 2.0 0.0 0.00 0.00 0.00 76 1020.8
20260902063002 56 83 1.0 0.0 0.00 0.00 0.00 78 1020.7
20260902062501 56 57 1.0 0.0 0.00 0.00 0.00 79 1020.6
20260902062002 55 67 2.0 0.0 0.00 0.00 0.00 79 1020.6
20260902061501 55 74 0.0 0.0 0.00 0.00 0.00 80 1020.5
20260902061001 55 106 1.0 0.0 0.00 0.00 0.00 78 1020.5
20260902060501 55 85 1.0 0.0 0.00 0.00 0.00 78 1020.4
20260902060001 54 61 1.0 0.0 0.00 0.00 0.00 79 1020.3
20260902055502 54 64 2.0 0.0 0.00 0.00 0.00 79 1020.3
20260902055001 54 47 1.0 0.0 0.00 0.00 0.00 82 1020.4
20260902054502 53 0 0.0 0.0 0.00 0.00 0.00 84 1020.4
20260902054001 53 0 0.0 0.0 0.00 0.00 0.00 84 1020.4
20260902053502 53 146 1.0 0.0 0.00 0.00 0.00 84 1020.3
20260902053001 53 97 0.0 0.0 0.00 0.00 0.00 83 1020.3
20260902052502 52 77 1.0 0.0 0.00 0.00 0.00 84 1020.3
20260902052001 52 89 0.0 0.0 0.00 0.00 0.00 84 1020.4
20260902051501 52 92 1.0 0.0 0.00 0.00 0.00 84 1020.2
20260902051002 52 63 2.0 0.0 0.00 0.00 0.00 84 1020.2
20260902050501 52 61 1.0 0.0 0.00 0.00 0.00 84 1020.2
20260902050003 52 59 3.0 0.0 0.00 0.00 0.00 84 1020.2
20260902045501 52 49 3.0 0.0 0.00 0.00 0.00 84 1020.2
20260902045002 52 34 3.0 0.0 0.00 0.00 0.00 84 1020.3
20260902044501 52 40 3.0 0.0 0.00 0.00 0.00 86 1020.3
20260902044002 52 31 3.0 0.0 0.00 0.00 0.00 86 1020.2
20260902043501 52 41 4.0 0.0 0.00 0.00 0.00 85 1020.1
20260902043001 52 45 4.0 0.0 0.00 0.00 0.00 84 1020.0
20260902042502 52 57 3.0 0.0 0.00 0.00 0.00 83 1020.0
20260902042001 52 72 3.0 0.0 0.00 0.00 0.00 83 1020.0
20260902041502 53 75 3.0 0.0 0.00 0.00 0.00 82 1020.0
20260902041001 53 65 2.0 0.0 0.00 0.00 0.00 82 1020.1
20260902040502 53 59 2.0 0.0 0.00 0.00 0.00 82 1020.2
20260902040002 53 44 2.0 0.0 0.00 0.00 0.00 81 1020.1
20260902035501 53 19 2.0 0.0 0.00 0.00 0.00 83 1020.0
20260902035002 52 43 3.0 0.0 0.00 0.00 0.00 83 1020.0
20260902034502 53 50 2.0 0.0 0.00 0.00 0.00 82 1020.0
20260902034001 53 55 3.0 0.0 0.00 0.00 0.00 82 1019.9
20260902033502 53 63 2.0 0.0 0.00 0.00 0.00 83 1019.9
20260902033002 53 95 2.0 0.0 0.00 0.00 0.00 83 1019.9
20260902032501 53 82 2.0 0.0 0.00 0.00 0.00 84 1019.9
20260902032002 52 65 3.0 0.0 0.00 0.00 0.00 84 1020.0
20260902031502 53 49 3.0 0.0 0.00 0.00 0.00 83 1020.0
20260902031001 53 50 3.0 0.0 0.00 0.00 0.00 83 1020.0
20260902030502 53 58 2.0 0.0 0.00 0.00 0.00 83 1020.0
20260902030002 53 56 2.0 0.0 0.00 0.00 0.00 84 1019.9
20260902025501 53 106 2.0 0.0 0.00 0.00 0.00 83 1020.0
20260902025002 53 94 2.0 0.0 0.00 0.00 0.00 83 1020.1
20260902024502 53 94 1.0 0.0 0.00 0.00 0.00 83 1020.1
20260902024001 53 51 2.0 0.0 0.00 0.00 0.00 81 1020.0
20260902023502 53 55 2.0 0.0 0.00 0.00 0.00 82 1020.1
20260902023002 54 77 1.0 0.0 0.00 0.00 0.00 80 1020.1
20260902022501 54 57 2.0 0.0 0.00 0.00 0.00 79 1020.0
20260902022003 54 58 2.0 0.0 0.00 0.00 0.00 79 1020.0
20260902021502 55 42 3.0 0.0 0.00 0.00 0.00 78 1019.9
20260902021001 55 42 3.0 0.0 0.00 0.00 0.00 78 1020.0
20260902020502 55 43 3.0 0.0 0.00 0.00 0.00 77 1020.1
20260902020002 55 45 2.0 0.0 0.00 0.00 0.00 79 1020.1
20260902015501 55 53 2.0 0.0 0.00 0.00 0.00 79 1020.1
20260902015002 55 52 2.0 0.0 0.00 0.00 0.00 78 1020.1
20260902014502 55 50 3.0 0.0 0.00 0.00 0.00 78 1020.2
20260902014001 55 55 3.0 0.0 0.00 0.00 0.00 78 1020.1
20260902013502 55 57 3.0 0.0 0.00 0.00 0.00 78 1020.2
20260902013001 55 43 3.0 0.0 0.00 0.00 0.00 77 1020.2
20260902012501 56 25 3.0 0.0 0.00 0.00 0.00 74 1020.3
20260902012002 58 358 2.0 0.0 0.00 0.00 0.00 71 1020.2
20260902011501 58 343 2.0 0.0 0.00 0.00 0.00 71 1020.3
20260902011001 57 347 3.0 0.0 0.00 0.00 0.00 72 1020.3
20260902010502 57 337 3.0 0.0 0.00 0.00 0.00 74 1020.3
20260902010001 56 352 3.0 0.0 0.00 0.00 0.00 75 1020.3
20260902005501 56 350 3.0 0.0 0.00 0.00 0.00 77 1020.3
20260902005002 56 3 4.0 0.0 0.00 0.00 0.00 78 1020.4
20260902004502 55 22 4.0 0.0 0.00 0.00 0.00 79 1020.3
20260902004001 55 42 5.0 0.0 0.00 0.00 0.00 77 1020.2
20260902003502 56 32 4.0 0.0 0.00 0.00 0.00 76 1020.2
20260902003002 55 35 5.0 0.0 0.00 0.00 0.00 79 1020.2
20260902002501 56 38 5.0 0.0 0.00 0.00 0.00 76 1020.2
20260902002002 57 21 6.0 0.0 0.00 0.00 0.00 73 1020.2
20260902001501 57 12 4.0 0.0 0.00 0.00 0.00 72 1020.2
20260902001001 58 21 5.0 0.0 0.00 0.00 0.00 69 1020.3
20260902000502 59 20 4.0 0.0 0.00 0.00 0.00 70 1020.3
20260902000001 59 16 4.0 0.0 0.00 0.00 0.00 69 1020.3
20260901235501 59 16 4.0 0.0 0.00 0.00 0.00 69 1020.4
20260901235002 59 5 4.0 0.0 0.00 0.00 0.00 69 1020.3
20260901234502 58 19 5.0 0.0 0.00 0.00 0.00 70 1020.3
20260901234001 58 22 5.0 0.0 0.00 0.00 0.00 70 1020.3
20260901233502 58 24 6.0 0.0 0.00 0.00 0.00 71 1020.3
20260901233002 59 23 6.0 0.0 0.00 0.00 0.00 70 1020.4
20260901232501 59 21 6.0 0.0 0.00 0.00 0.00 69 1020.4
20260901232002 59 24 6.0 0.0 0.00 0.00 0.00 68 1020.5
20260901231502 59 27 6.0 0.0 0.00 0.00 0.00 68 1020.5
20260901231001 59 23 5.0 0.0 0.00 0.00 0.00 68 1020.6
20260901230502 59 23 4.0 0.0 0.00 0.00 0.00 68 1020.7
20260901230002 60 11 4.0 0.0 0.00 0.00 0.00 67 1020.6
20260901225501 61 359 3.0 0.0 0.00 0.00 0.00 66 1020.6
20260901225002 61 7 3.0 0.0 0.00 0.00 0.00 66 1020.6
20260901224502 61 4 2.0 0.0 0.00 0.00 0.00 65 1020.6
20260901224002 61 9 3.0 0.0 0.00 0.00 0.00 67 1020.6
20260901223502 60 14 3.0 0.0 0.00 0.00 0.00 69 1020.7
20260901223002 60 359 3.0 0.0 0.00 0.00 0.00 69 1020.7
20260901222501 59 9 3.0 0.0 0.00 0.00 0.00 75 1020.7
20260901222002 59 22 4.0 0.0 0.00 0.00 0.00 76 1020.6
20260901221502 59 22 4.0 0.0 0.00 0.00 0.00 76 1020.7
20260901221001 59 40 4.0 0.0 0.00 0.00 0.00 74 1020.8
20260901220502 59 36 4.0 0.0 0.00 0.00 0.00 74 1020.7
20260901220002 60 43 3.0 0.0 0.00 0.00 0.00 72 1020.7
20260901215501 60 54 1.0 0.0 0.00 0.00 0.00 69 1020.8
20260901215002 60 63 2.0 0.0 0.00 0.00 0.00 69 1020.8
20260901214502 60 81 1.0 0.0 0.00 0.00 0.00 70 1020.8
20260901214001 61 56 2.0 0.0 0.00 0.00 0.00 65 1020.6
20260901213502 62 29 3.0 0.0 0.00 0.00 0.00 64 1020.7
20260901213002 62 21 2.0 0.0 0.00 0.00 0.00 64 1020.7
20260901212501 62 9 3.0 0.0 0.00 0.00 0.00 62 1020.7
20260901212002 62 20 4.0 0.0 0.00 0.00 0.00 63 1020.8
20260901211502 63 31 4.0 0.0 0.00 0.00 0.00 61 1020.6
20260901211001 63 44 3.0 0.0 0.00 0.00 0.00 62 1020.6
20260901210502 64 26 4.0 0.0 0.00 0.00 0.00 61 1020.8
20260901210002 64 23 2.0 0.0 0.00 0.00 0.00 62 1020.7
20260901205501 63 1 2.0 0.0 0.00 0.00 0.00 63 1020.7
20260901205002 63 13 1.0 0.0 0.00 0.00 0.00 65 1020.6
20260901204502 63 344 3.0 0.0 0.00 0.00 0.00 66 1020.7
20260901204001 63 339 4.0 0.0 0.00 0.00 0.00 66 1020.7
20260901203501 63 28 3.0 0.0 0.00 0.00 0.00 67 1020.6
20260901203002 63 25 1.0 0.0 0.00 0.00 0.00 69 1020.6
20260901202501 65 341 2.0 0.0 0.00 0.00 0.00 65 1020.6
20260901202002 64 18 3.0 0.0 0.00 0.00 0.00 66 1020.5
20260901201502 64 31 2.0 0.0 0.00 0.00 0.00 69 1020.5
20260901201001 64 340 3.0 0.0 0.00 0.00 0.00 69 1020.5
20260901200502 63 359 1.0 0.0 0.00 0.00 0.00 72 1020.5
20260901200002 61 334 2.0 0.0 0.00 0.00 0.00 75 1020.5
20260901195501 64 4 4.0 0.0 0.00 0.00 0.00 67 1020.4
20260901195002 65 88 1.0 0.0 0.00 0.00 0.00 63 1020.4
20260901194502 66 170 2.0 0.0 0.00 0.00 0.00 61 1020.5
20260901194001 66 154 1.0 0.0 0.00 0.00 0.00 58 1020.4
20260901193502 66 265 0.0 0.0 0.00 0.00 0.00 57 1020.4
20260901193002 66 284 1.0 0.0 0.00 0.00 0.00 57 1020.4
20260901192501 66 272 2.0 0.0 0.00 0.00 0.00 56 1020.4
20260901192002 66 255 1.0 0.0 0.00 0.00 0.00 56 1020.3
20260901191502 66 281 2.0 0.0 0.00 0.00 0.00 56 1020.4
20260901191001 66 211 0.0 0.0 0.00 0.00 0.00 59 1020.3
20260901190502 67 0 0.0 0.0 0.00 0.00 0.00 56 1020.2
20260901190002 68 295 2.0 0.0 0.00 0.00 0.00 54 1020.2
20260901185501 67 304 2.0 0.0 0.00 0.00 0.00 57 1020.2
20260901185002 68 305 2.0 0.0 0.00 0.00 0.00 55 1020.1
20260901184502 68 308 2.0 0.0 0.00 0.00 0.00 55 1020.0
20260901184001 68 301 2.0 0.0 0.00 0.00 0.00 56 1020.0
20260901183502 68 311 3.0 0.0 0.00 0.00 0.00 55 1020.0
20260901183001 68 308 2.0 0.0 0.00 0.00 0.00 55 1019.9
20260901182502 69 312 2.0 0.0 0.00 0.00 0.00 55 1019.9
20260901182001 68 307 3.0 0.0 0.00 0.00 0.00 56 1020.0
20260901181501 68 295 3.0 0.0 0.00 0.00 0.00 56 1019.9
20260901181002 68 301 2.0 0.0 0.00 0.00 0.00 56 1019.9
20260901180501 69 300 2.0 0.0 0.00 0.00 0.00 55 1019.9
20260901180002 69 297 2.0 0.0 0.00 0.00 0.00 54 1019.8
20260901175501 69 286 2.0 0.0 0.00 0.00 0.00 53 1019.8
20260901175001 70 296 2.0 0.0 0.00 0.00 0.00 53 1019.8
20260901174501 70 294 2.0 0.0 0.00 0.00 0.00 52 1019.8
20260901174001 70 300 2.0 0.0 0.00 0.00 0.00 52 1019.7
20260901173501 71 310 1.0 0.0 0.00 0.00 0.00 51 1019.7
20260901173001 71 297 2.0 0.0 0.00 0.00 0.00 51 1019.7
20260901172502 71 304 1.0 0.0 0.00 0.00 0.00 50 1019.7
20260901172001 71 289 2.0 0.0 0.00 0.00 0.00 50 1019.7
20260901171502 71 273 1.0 0.0 0.00 0.00 0.00 52 1019.7
20260901171001 71 270 2.0 0.0 0.00 0.00 0.00 51 1019.8
20260901170502 71 286 2.0 0.0 0.00 0.00 0.00 51 1019.8
20260901170001 71 324 1.0 0.0 0.00 0.00 0.00 51 1019.7
20260901165502 71 343 3.0 0.0 0.00 0.00 0.00 51 1019.7
20260901165001 72 347 4.0 0.0 0.00 0.00 0.00 50 1019.7
20260901164502 72 332 3.0 0.0 0.00 0.00 0.00 50 1019.8
20260901164002 72 312 3.0 0.0 0.00 0.00 0.00 49 1019.8
20260901163502 72 317 4.0 0.0 0.00 0.00 0.00 49 1019.9
20260901163002 72 336 5.0 0.0 0.00 0.00 0.00 50 1019.8
20260901162501 72 330 6.0 0.0 0.00 0.00 0.00 49 1019.8
20260901162002 72 328 3.0 0.0 0.00 0.00 0.00 49 1019.8
20260901161501 72 337 4.0 0.0 0.00 0.00 0.00 48 1019.9
20260901161002 73 323 2.0 0.0 0.00 0.00 0.00 47 1019.9
20260901160501 73 340 3.0 0.0 0.00 0.00 0.00 47 1019.9
20260901160001 73 317 6.0 0.0 0.00 0.00 0.00 47 1019.7
20260901155502 73 28 2.0 0.0 0.00 0.00 0.00 46 1019.8
20260901155002 73 343 5.0 0.0 0.00 0.00 0.00 47 1019.8
20260901154502 73 10 5.0 0.0 0.00 0.00 0.00 46 1019.7
20260901154001 73 28 2.0 0.0 0.00 0.00 0.00 47 1019.8
20260901153502 72 5 4.0 0.0 0.00 0.00 0.00 49 1019.7
20260901153001 73 349 7.0 0.0 0.00 0.00 0.00 48 1019.8
20260901152501 72 6 5.0 0.0 0.00 0.00 0.00 48 1019.7
20260901152001 72 346 6.0 0.0 0.00 0.00 0.00 48 1019.8
20260901151502 72 347 6.0 0.0 0.00 0.00 0.00 49 1019.7
20260901151003 74 335 4.0 0.0 0.00 0.00 0.00 46 1019.6
20260901150501 73 17 4.0 0.0 0.00 0.00 0.00 49 1019.8
20260901150002 72 5 2.0 0.0 0.00 0.00 0.00 47 1019.8
20260901145501 72 15 5.0 0.0 0.00 0.00 0.00 48 1019.7
20260901145002 73 352 4.0 0.0 0.00 0.00 0.00 48 1019.9
20260901144501 72 272 9.0 0.0 0.00 0.00 0.00 46 1019.7
20260901144002 73 153 6.0 0.0 0.00 0.00 0.00 46 1019.8
20260901143501 72 166 4.0 0.0 0.00 0.00 0.00 45 1019.7
20260901143002 74 274 1.0 0.0 0.00 0.00 0.00 44 1019.8
20260901142502 73 0 0.0 0.0 0.00 0.00 0.00 45 1019.8
20260901142002 73 268 3.0 0.0 0.00 0.00 0.00 46 1019.9
20260901141502 72 272 5.0 0.0 0.00 0.00 0.00 45 1020.0
20260901141001 73 276 4.0 0.0 0.00 0.00 0.00 45 1020.0
20260901140502 73 236 1.0 0.0 0.00 0.00 0.00 47 1020.0
20260901140001 72 285 3.0 0.0 0.00 0.00 0.00 48 1020.1
20260901135502 73 42 1.0 0.0 0.00 0.00 0.00 49 1020.0
20260901135001 73 351 4.0 0.0 0.00 0.00 0.00 48 1020.0
20260901134502 71 11 5.0 0.0 0.00 0.00 0.00 49 1019.9
20260901134002 72 23 5.0 0.0 0.00 0.00 0.00 49 1020.0
20260901133502 71 312 6.0 0.0 0.00 0.00 0.00 51 1020.1
20260901133001 71 346 5.0 0.0 0.00 0.00 0.00 49 1020.0
20260901132501 71 303 4.0 0.0 0.00 0.00 0.00 51 1020.1
20260901132001 71 338 4.0 0.0 0.00 0.00 0.00 50 1020.0
20260901131501 72 337 7.0 0.0 0.00 0.00 0.00 48 1020.1
20260901131002 72 342 2.0 0.0 0.00 0.00 0.00 48 1020.3
20260901130501 72 251 4.0 0.0 0.00 0.00 0.00 47 1020.4
20260901130003 73 244 4.0 0.0 0.00 0.00 0.00 48 1020.4
20260901125501 72 316 3.0 0.0 0.00 0.00 0.00 48 1020.5
20260901125002 72 273 7.0 0.0 0.00 0.00 0.00 47 1020.5
20260901124501 72 267 2.0 0.0 0.00 0.00 0.00 47 1020.5
20260901124001 72 255 4.0 0.0 0.00 0.00 0.00 49 1020.6
20260901123501 71 231 6.0 0.0 0.00 0.00 0.00 48 1020.4
20260901123002 71 227 10.0 0.0 0.00 0.00 0.00 49 1020.4
20260901122502 72 243 6.0 0.0 0.00 0.00 0.00 49 1020.5
20260901122001 71 211 5.0 0.0 0.00 0.00 0.00 47 1020.6
20260901121505 72 241 9.0 0.0 0.00 0.00 0.00 47 1020.5
20260901121002 72 249 5.0 0.0 0.00 0.00 0.00 47 1020.5
20260901120503 72 220 5.0 0.0 0.00 0.00 0.00 48 1020.4
20260901120001 71 247 5.0 0.0 0.00 0.00 0.00 46 1020.6
20260901115502 71 209 1.0 0.0 0.00 0.00 0.00 48 1020.7
20260901115001 71 265 2.0 0.0 0.00 0.00 0.00 49 1020.7
20260901114502 71 257 10.0 0.0 0.00 0.00 0.00 49 1020.7
20260901114002 71 224 9.0 0.0 0.00 0.00 0.00 48 1020.7
20260901113502 70 281 11.0 0.0 0.00 0.00 0.00 50 1020.7
20260901113002 71 285 9.0 0.0 0.00 0.00 0.00 47 1020.7
20260901112501 71 250 4.0 0.0 0.00 0.00 0.00 51 1020.8
20260901112002 71 241 9.0 0.0 0.00 0.00 0.00 50 1020.8
20260901111502 71 256 8.0 0.0 0.00 0.00 0.00 49 1020.8
20260901111002 71 215 4.0 0.0 0.00 0.00 0.00 50 1020.9
20260901110501 70 261 2.0 0.0 0.00 0.00 0.00 52 1021.0
20260901110004 70 244 9.0 0.0 0.00 0.00 0.00 52 1020.8
20260901105502 70 243 6.0 0.0 0.00 0.00 0.00 55 1020.8
20260901105002 70 246 8.0 0.0 0.00 0.00 0.00 57 1020.9
20260901104503 71 297 6.0 0.0 0.00 0.00 0.00 55 1020.8
20260901104001 69 248 8.0 0.0 0.00 0.00 0.00 55 1020.8
20260901103502 70 238 5.0 0.0 0.00 0.00 0.00 54 1020.8
20260901103001 69 301 6.0 0.0 0.00 0.00 0.00 53 1021.0
20260901102502 69 253 4.0 0.0 0.00 0.00 0.00 55 1021.0
20260901102001 70 294 7.0 0.0 0.00 0.00 0.00 55 1020.9
20260901101502 70 242 4.0 0.0 0.00 0.00 0.00 56 1021.0
20260901101002 70 243 6.0 0.0 0.00 0.00 0.00 55 1021.0
20260901100501 69 208 5.0 0.0 0.00 0.00 0.00 55 1021.1
20260901100002 70 252 8.0 0.0 0.00 0.00 0.00 55 1021.0
20260901095501 69 215 6.0 0.0 0.00 0.00 0.00 57 1021.1
20260901095002 69 293 8.0 0.0 0.00 0.00 0.00 59 1021.2
20260901094501 69 265 6.0 0.0 0.00 0.00 0.00 56 1021.1
20260901094003 68 239 4.0 0.0 0.00 0.00 0.00 56 1021.2
20260901093501 68 237 6.0 0.0 0.00 0.00 0.00 59 1021.1
20260901093001 68 209 3.0 0.0 0.00 0.00 0.00 58 1021.2